Regional Weather Roundup
Issued by NWS

Home | Current Version | Previous Version | Graphics & Text | Print | Product List | Glossary On
Versions: 1 2 3 4 5 6 7 8 9 10 11 12 13 14 15 16 17 18 19 20 21 22 23 24 25 26 27 28 29 30 31 32 33 34 35 36 37 38 39 40 41 42 43 44 45 46 47 48
000
ASUS45 KCYS 271610
RWRWY

WYOMING REGIONAL WEATHER ROUNDUP
NATIONAL WEATHER SERVICE CHEYENNE WY
900 AM MST FRI FEB 27 2015

NOTE:  "FAIR" INDICATES FEW OR NO CLOUDS BELOW 12,000 FEET
WITH NO SIGNIFICANT WEATHER AND/OR OBSTRUCTIONS TO VISIBILITY.

WYZ001-271700-
YELLOWSTONE NATIONAL PARK

CITY           SKY/WX    TMP DP  RH WIND       PRES   REMARKS
LK YELLOWSTONE   N/A      2  -3  80 SE3       29.78S
W YELLOWSTONE  NOT AVBL

$$
WYZ002>013-054>058-071-098>099-271700-
NORTHERN WYOMING

CITY           SKY/WX    TMP DP  RH WIND       PRES   REMARKS
JACKSON        LGT SNOW   9   7  92 CALM      29.84R
CODY           FAIR       7   3  85 CALM      29.88F
GREYBULL       FAIR      14   2  58 CALM      29.98F
WORLAND        FAIR       9   4  80 CALM      29.96F
SHERIDAN       FAIR      -3  -6  87 S3        29.97F
BUFFALO        FAIR       4  -1  80 SE13      29.89S WCI -13
GILLETTE       PTSUNNY    7   1  76 S28G33    29.97F HAZE    WCI -16
HULETT         FAIR      14   3  62 S13G18    30.02F WCI   0
NEWCASTLE      FAIR      12   1  62 SE16      30.09F WCI  -4

$$
WYZ014>020-022>026-101>103-271700-
CENTRAL WYOMING

CITY           SKY/WX    TMP DP  RH WIND       PRES   REMARKS
BIG PINEY      CLOUDY    11   4  73 NE3       29.83F
PINEDALE       FLURRIES   3   0  85 CALM      29.84S
DUBOIS         FAIR       5   0  78 CALM      29.74F
LANDER         CLOUDY     2  -2  83 W5        29.88F WCI  -8
RIVERTON       CLOUDY     5   1  83 SW3       29.91S
CASPER         FAIR       5   1  83 SE3       29.92F
DOUGLAS        FAIR       9   2  73 SE21      29.98F WCI -11

$$
WYZ021-027>030-104>119-271700-
SOUTHERN WYOMING

CITY           SKY/WX    TMP DP  RH WIND       PRES   REMARKS
EVANSTON       CLOUDY    14  11  87 E9        29.79F WCI   2
FORT BRIDGER   LGT SNOW  13  10  90 E3        29.85S
ROCK SPRINGS   FAIR       8   2  76 E5        29.85F WCI   0
DIXON          FLURRIES  10   4  75 SE5       29.90F WCI   2
RAWLINS        FAIR       6   1  80 CALM      29.85S
SARATOGA       FAIR       5   1  85 SE3       29.84F
LARAMIE        FAIR       3  -2  79 S16       29.80F WCI -16
CHEYENNE       CLOUDY     5   1  83 S13       29.94F FOG     WCI -12
TORRINGTON     CLOUDY    11   4  73 SE16G24   30.10F WCI  -6
PINE BLUFFS    CLOUDY    10   5  79 S20G25    30.05S WCI  -8

$$


USA.gov is the U.S. government's official web portal to all federal, state and local government web resources and services.